Lanai City, HI

4:00 AM HST on November 23, 2017 (GMT -1000)
Lanai City

Weather History for PHNY - September, 2013

Change the Weather History Date:

Tuesday, September 24, 2013

  Actual Average Record
Temperature  
Mean Temperature 75 °F -  
Max Temperature 82 °F 82 °F 86 °F (2001)
Min Temperature 68 °F 64 °F 59 °F (1952)
Cooling Degree Days 10    
Growing Degree Days 25 (Base 50)    
Moisture  
Dew Point 67 °F    
Average Humidity 79    
Maximum Humidity 94    
Minimum Humidity 58    
Precipitation  
Precipitation 0.10 in - - ()
Sea Level Pressure  
Sea Level Pressure 29.99 in    
Wind  
Wind Speed 9 mph (NE)    
Max Wind Speed 13 mph    
Max Gust Speed -    
Visibility 10 miles    
Events Rain    
Averages and records for this station are not official NWS values.
T = Trace of Precipitation, MM = Missing Value Source: NWS Daily Summary

Daily Weather History Graph

Daily Weather History Graph

Search for Another Location

Airport or City:

Trip Planner

Search our weather history database for the weather conditions in past years. The results will help you decide how hot, cold, wet, or windy it might be!

Date:

Astronomy

Sep. 24, 2013 Rise Set
Actual Time 6:17 AM HST 6:21 PM HST
Civil Twilight 5:55 AM HST 6:43 PM HST
Nautical Twilight 5:29 AM HST 7:09 PM HST
Astronomical Twilight 5:03 AM HST 7:35 PM HST
Moon 10:26 PM HST (9/24) 11:03 AM HST (9/24)
Length of Visible Light 12h 48m
Length of Day
12h 04m
Waning Gibbous, 71% of the Moon is Illuminated
Sep 24
Waning Gibbous
Sep 26
Last Quarter
Oct 4
New
Oct 11
First Quarter
Oct 18
Full

Hourly Weather History & Observations

Time (HST) Temp. Heat Index Dew Point Humidity Pressure Visibility Wind Dir Wind Speed Gust Speed Precip Events Conditions
12:56 AM 70.9 °F - 64.9 °F 81% 29.94 in 10.0 mi NE 10.4 mph - N/A   Clear
1:56 AM 70.9 °F - 64.9 °F 81% 29.93 in 10.0 mi NNE 8.1 mph - N/A   Partly Cloudy
2:56 AM 70.0 °F - 64.9 °F 84% 29.93 in 10.0 mi NNE 10.4 mph - N/A   Clear
3:56 AM 68.0 °F - 63.9 °F 87% 29.93 in 10.0 mi ENE 6.9 mph - N/A   Clear
4:56 AM 68.0 °F - 64.9 °F 90% 29.94 in 10.0 mi NNE 6.9 mph - N/A   Clear
5:56 AM 68.0 °F - 64.9 °F 90% 29.95 in 10.0 mi ENE 5.8 mph - N/A   Clear
6:55 AM 71.6 °F - 64.4 °F 78% 30.02 in 10.0 mi ENE 11.5 mph - N/A   Scattered Clouds
6:56 AM 72.0 °F - 66.9 °F 84% 29.96 in 10.0 mi ENE 12.7 mph - N/A   Partly Cloudy
7:55 AM 77.0 °F - 66.2 °F 69% 30.04 in 10.0 mi ENE 11.5 mph - N/A   Scattered Clouds
7:56 AM 75.9 °F - 65.8 °F 71% 29.98 in - ENE 11.5 mph - N/A   Mostly Cloudy
8:50 AM 75.2 °F - 64.4 °F 69% 30.01 in 10.0 mi ENE 11.5 mph - N/A   Mostly Cloudy
8:56 AM 77.9 °F - 64.9 °F 64% 29.99 in - NE 6.9 mph - N/A   Unknown
9:50 AM 75.2 °F - 64.4 °F 69% 30.06 in 10.0 mi NNE 5.8 mph - N/A   Mostly Cloudy
9:56 AM 77.9 °F - 65.8 °F 66% 30.00 in - NE 6.9 mph - N/A   Unknown
10:55 AM 77.0 °F - 62.6 °F 61% 30.04 in 10.0 mi SE 11.5 mph - N/A   Mostly Cloudy
10:56 AM 82.4 °F 84.6 °F 66.2 °F 58% 30.06 in - SE 12.7 mph - N/A   Unknown
11:50 AM 77.0 °F - 64.4 °F 65% 30.01 in 10.0 mi SE 11.5 mph - N/A   Scattered Clouds
11:56 AM 81.9 °F 84.2 °F 66.9 °F 60% 29.97 in - South 9.2 mph - N/A   Unknown
12:50 PM 75.2 °F - 66.2 °F 73% 30.02 in 10.0 mi NNW 5.8 mph - N/A Rain Light Rain
12:56 PM 74.8 °F - 72.9 °F 94% 29.97 in - NW 10.4 mph - 0.02 in   Unknown
1:55 PM 71.6 °F - 66.2 °F 83% 30.02 in 10.0 mi NNE 12.7 mph - N/A Rain Light Rain
1:56 PM 77.0 °F - 73.4 °F 89% 30.02 in - North 8.1 mph - N/A   Unknown
2:56 PM 73.9 °F - 70.9 °F 90% 29.95 in - North - - 0.08 in   Unknown
3:55 PM 77.0 °F - 69.8 °F 78% 30.01 in 10.0 mi WSW 5.8 mph - N/A   Mostly Cloudy
3:56 PM - - - N/A% - - North - - N/A   Unknown
4:56 PM 73.9 °F - 70.0 °F 87% 29.97 in 10.0 mi Variable 5.8 mph - N/A   Mostly Cloudy
5:03 PM 73.4 °F - 69.8 °F 88% 30.02 in 10.0 mi NNE 6.9 mph - N/A   Overcast
5:30 PM 75.2 °F - 68.0 °F 78% 30.03 in 10.0 mi NNE 12.7 mph - N/A   Partly Cloudy
5:56 PM 74.8 °F - 66.9 °F 76% 29.98 in 10.0 mi ENE 8.1 mph - N/A   Clear
6:56 PM 72.0 °F - 68.0 °F 87% 29.99 in 10.0 mi NE 11.5 mph - N/A   Partly Cloudy
7:56 PM 70.0 °F - 66.9 °F 90% 30.00 in 10.0 mi NE 6.9 mph - N/A   Clear
8:56 PM 68.9 °F - 64.9 °F 87% 30.02 in 10.0 mi ENE 3.5 mph - N/A   Clear
9:56 PM 70.0 °F - 65.8 °F 87% 30.03 in 10.0 mi Calm Calm - N/A   Partly Cloudy
10:56 PM 70.0 °F - 66.9 °F 90% 30.01 in 10.0 mi NNE 8.1 mph - N/A   Clear
11:56 PM 70.0 °F - 66.9 °F 90% 30.00 in 10.0 mi ENE 5.8 mph - N/A   Clear